Stations météo

Publicité
Cannes, France (7684): Température de l'air & dewpoint: 20.05.2019 21:00:00 - 26.05.2019 21:00:00 (CEST)Cannes, France (7684): Température de l'air 5cm: 20.05.2019 21:00:00 - 26.05.2019 21:00:00 (CEST)Cannes, France (7684): Vitesse du vent & gusts: 20.05.2019 21:00:00 - 26.05.2019 21:00:00 (CEST)Cannes, France (7684): Direction du vent: 20.05.2019 21:00:00 - 26.05.2019 21:00:00 (CEST)Cannes, France (7684): reduced air pressure: 20.05.2019 21:00:00 - 26.05.2019 21:00:00 (CEST)Cannes, France (7684): visibility: 20.05.2019 21:00:00 - 26.05.2019 21:00:00 (CEST)Cannes, France (7684): Quantités de précipitations: 20.05.2019 21:00:00 - 26.05.2019 21:00:00 (CEST)
Date & Time tt [°C] td [°C] tt 5cm [°C] ff [km/h] ff [knt] fx [km/h] fx [knt] dd ppp [hPa] vv [km] rr [mm]
26.05.2019 21:00:00 20,7 13,2 19,5 8 4 15 8 WSW 1010,3 60 0,0
26.05.2019 20:00:00 21,4 12,3 21,1 7 4 21 11 W 1010,4 60 0,0
26.05.2019 19:00:00 22,0 12,0 22,5 8 4 15 8 WSW 1010,5 60 0,0
26.05.2019 18:00:00 21,8 12,4 23,9 6 4 16 9 SSE 1010,9 54 0,0
26.05.2019 17:00:00 21,9 12,4 24,8 9 5 16 8 S 1011,7 60 0,0
26.05.2019 16:00:00 21,2 13,1 24,7 9 5 13 7 S 1011,8 60 0,0
26.05.2019 15:00:00 22,1 13,2 29,6 7 4 23 13 S 1012,3 53 0,0
26.05.2019 14:00:00 21,2 15,3 28,6 11 6 23 13 S 1012,8 40 0,0
26.05.2019 13:00:00 21,9 15,5 25,2 10 5 15 8 S 1013,1 39 0,0
26.05.2019 12:00:00 19,5 15,6 22,1 3 2 6 4 WNW 1013,4 38 0,0
26.05.2019 11:00:00 17,2 15,4 16,7 4 2 9 5 NNW 1013,4 15 0,0
26.05.2019 10:00:00 15,7 14,4 15,3 4 2 11 6 N 1013,5 13 1,0
26.05.2019 09:00:00 15,3 13,1 15,4 5 3 14 7 N 1013,0 12 0,2
26.05.2019 08:00:00 14,7 12,4 13,7 7 4 13 7 N 1012,9 30 0,0
26.05.2019 07:00:00 13,8 12,0 12,8 5 3 13 7 N 1012,8 26 0,0
26.05.2019 06:00:00 13,5 11,9 12,3 6 3 14 7 N 1012,8 24 0,0
26.05.2019 05:00:00 13,2 11,8 11,9 6 3 14 7 N 1012,8 20 0,0
26.05.2019 04:00:00 12,9 11,6 10,3 5 3 11 6 NNE 1013,0 18 0,0
26.05.2019 03:00:00 12,8 11,5 10,4 5 3 8 5 N 1013,4 13 0,0
26.05.2019 02:00:00 13,4 12,3 11,0 3 2 11 6 N 1013,6 12 0,0
26.05.2019 01:00:00 13,6 12,7 11,6 5 3 10 5 N 1014,4 9 0,0
26.05.2019 00:00:00 14,4 13,1 11,5 6 3 8 5 N 1014,6 10 0,0
25.05.2019 23:00:00 15,3 13,5 13,3 5 3 9 5 N 1014,7 12 0,0
25.05.2019 22:00:00 16,0 14,4 12,5 5 3 6 4 N 1014,5 9 0,0
25.05.2019 21:00:00 17,3 14,4 14,5 0 0 10 5 N 1014,2 18 0,0
25.05.2019 20:00:00 17,9 14,6 17,4 6 4 16 8 SSE 1013,8 20 0,0
25.05.2019 19:00:00 18,7 14,2 21,2 10 6 19 10 SSE 1013,5 28 0,0
25.05.2019 18:00:00 20,1 14,9 28,5 8 4 17 9 S 1013,3 19 0,0
25.05.2019 17:00:00 20,0 15,0 29,6 11 6 22 12 S 1013,9 20 0,0
25.05.2019 16:00:00 20,8 15,8 27,5 12 7 22 12 S 1014,4 20 0,0
25.05.2019 15:00:00 19,9 14,5 27,1 15 8 26 14 SSE 1014,9 20 0,0
25.05.2019 14:00:00 19,8 15,2 26,9 16 8 26 14 SSE 1015,1 19 0,0
25.05.2019 13:00:00 19,6 14,2 26,5 17 9 27 15 SSE 1015,1 20 0,0
25.05.2019 12:00:00 20,2 15,2 22,1 12 7 21 11 SSE 1015,1 19 0,0
25.05.2019 11:00:00 18,5 14,2 21,1 13 7 20 11 S 1015,3 20 0,0
25.05.2019 10:00:00 18,9 13,5 19,8 4 2 10 6 E 1015,0 37 0,0
25.05.2019 09:00:00 17,9 14,2 19,4 4 2 8 4 NW 1014,7 19 0,0
25.05.2019 08:00:00 17,0 14,6 16,6 0 0 8 4 N 1014,3 18 0,0
25.05.2019 07:00:00 16,3 14,5 15,7 4 2 7 4 N 1014,1 16 0,0
25.05.2019 06:00:00 16,2 14,4 15,6 3 2 7 4 N 1013,9 18 0,0
25.05.2019 05:00:00 16,0 14,4 15,7 3 2 6 3 N 1013,7 19 0,0
25.05.2019 04:00:00 16,3 14,5 15,9 0 0 4 2 N 1013,9 18 0,0
25.05.2019 03:00:00 16,4 14,6 16,0 2 1 5 3 N 1013,5 19 0,0
25.05.2019 02:00:00 16,6 14,6 16,2 3 1 6 3 N 1013,7 19 0,0
25.05.2019 01:00:00 16,8 14,3 16,4 2 1 4 2 N 1014,0 17 0,0
25.05.2019 00:00:00 16,8 14,4 16,4 3 1 5 3 N 1014,2 20 0,0
24.05.2019 23:00:00 17,1 14,6 16,5 0 0 6 3 N 1014,5 20 0,0
24.05.2019 22:00:00 17,2 14,5 16,3 4 2 8 4 SSE 1014,4 32 0,0
24.05.2019 21:00:00 16,8 13,9 16,3 5 3 9 5 S 1014,1 10 0,0
24.05.2019 20:00:00 17,4 13,7 18,2 3 2 8 5 S 1014,0 42 0,0
24.05.2019 19:00:00 17,9 13,8 19,2 4 2 10 6 SSE 1013,8 41 0,0
24.05.2019 18:00:00 17,8 14,5 19,6 9 5 14 7 S 1014,2 38 0,0
24.05.2019 17:00:00 18,6 14,9 22,2 7 4 15 8 S 1014,3 19 0,0
24.05.2019 16:00:00 18,3 14,8 21,9 7 4 20 11 SSE 1014,7 38 0,0
24.05.2019 15:00:00 19,0 14,9 20,3 11 6 19 10 SSE 1014,8 20 0,0
24.05.2019 14:00:00 18,7 14,4 22,2 10 5 24 13 SE 1015,2 28 0,0
24.05.2019 13:00:00 19,5 14,9 21,5 11 6 20 11 SE 1015,4 18 0,0
24.05.2019 12:00:00 17,9 14,8 18,7 9 5 14 7 SSE 1015,7 20 0,0
24.05.2019 11:00:00 17,6 15,0 18,6 5 3 8 4 S 1015,7 16 0,0
24.05.2019 10:00:00 17,3 14,8 18,5 3 2 7 4 NNW 1015,5 14 0,0
24.05.2019 09:00:00 17,0 14,6 16,7 4 2 10 5 NNW 1015,4 13 0,0
24.05.2019 08:00:00 16,4 14,6 16,1 3 2 9 5 N 1015,4 10 0,0
24.05.2019 07:00:00 15,9 14,3 15,2 4 2 7 4 N 1015,0 11 0,0
24.05.2019 06:00:00 15,5 13,9 14,8 3 1 6 3 N 1014,9 14 0,0
24.05.2019 05:00:00 15,3 13,5 14,7 3 2 7 4 N 1014,9 16 0,0
24.05.2019 04:00:00 15,2 13,6 14,5 3 1 5 3 N 1015,2 13 0,0
24.05.2019 03:00:00 14,8 12,8 13,9 0 0 4 2 N 1015,3 16 0,0
24.05.2019 02:00:00 14,4 12,9 11,1 3 1 4 2 N 1015,5 14 0,0
24.05.2019 01:00:00 13,8 12,7 10,1 3 1 5 3 N 1015,7 13 0,0
24.05.2019 00:00:00 13,9 12,6 10,4 4 2 6 3 N 1015,9 12 0,0
23.05.2019 23:00:00 14,9 12,9 10,7 3 1 5 3 NNE 1016,0 15 0,0
23.05.2019 22:00:00 15,4 12,9 11,6 4 2 5 3 NNW 1016,1 19 0,0
23.05.2019 21:00:00 16,6 13,1 13,5 0 0 6 3 N 1015,8 32 0,0
23.05.2019 20:00:00 17,7 13,4 19,0 4 2 14 8 SSE 1015,5 33 0,0
23.05.2019 19:00:00 18,3 13,4 22,3 7 4 15 8 S 1015,6 20 0,0
23.05.2019 18:00:00 18,5 14,4 26,0 11 6 23 12 S 1015,9 20 0,0
23.05.2019 17:00:00 19,3 15,0 24,3 13 7 27 14 S 1016,0 19 0,0
23.05.2019 16:00:00 19,9 14,5 24,0 16 8 24 13 SSE 1016,2 18 0,0
23.05.2019 15:00:00 19,2 14,5 25,1 14 7 23 12 SSE 1016,8 19 0,0
23.05.2019 14:00:00 20,1 14,9 25,7 11 6 18 10 SSE 1017,1 19 0,0
23.05.2019 13:00:00 19,0 13,6 22,5 10 5 16 9 SSE 1017,6 19 0,0
23.05.2019 12:00:00 18,5 13,8 20,6 9 5 14 8 S 1017,7 41 0,0
23.05.2019 11:00:00 17,7 14,4 20,3 9 5 15 8 S 1017,8 19 0,0
23.05.2019 10:00:00 18,0 13,5 18,7 7 4 13 7 ESE 1017,8 20 0,0
23.05.2019 09:00:00 17,1 14,4 17,1 5 3 12 7 N 1017,7 16 0,0
23.05.2019 08:00:00 16,4 14,2 15,9 2 1 6 4 NNW 1017,3 16 0,0
23.05.2019 07:00:00 16,0 14,4 15,5 3 2 8 5 N 1016,7 13 0,0
23.05.2019 06:00:00 15,8 14,3 15,5 5 3 8 4 N 1016,6 8 0,0
23.05.2019 05:00:00 15,7 14,7 15,4 5 3 10 5 N 1016,6 8 0,0
23.05.2019 04:00:00 15,5 14,9 15,4 3 2 7 4 NNW 1016,7 6 0,0
23.05.2019 03:00:00 16,1 14,5 16,0 4 2 8 4 NNE 1016,8 11 0,0
23.05.2019 02:00:00 16,5 14,1 16,0 3 1 6 3 N 1016,8 16 0,0
23.05.2019 01:00:00 16,4 13,9 16,0 2 1 4 2 NNW 1016,8 18 0,0
23.05.2019 00:00:00 16,5 14,5 16,1 3 2 6 3 WNW 1016,7 15 0,0
22.05.2019 23:00:00 16,4 14,6 15,9 5 3 7 4 SW 1016,7 15 0,0
22.05.2019 22:00:00 16,5 14,5 15,9 4 2 12 7 S 1016,5 17 0,0
22.05.2019 21:00:00 16,6 14,4 16,5 6 3 10 5 S 1015,9 16 0,0
22.05.2019 20:00:00 17,1 14,4 17,5 8 4 14 7 S 1015,8 18 0,0
22.05.2019 19:00:00 18,0 15,3 20,3 9 5 18 10 S 1015,5 17 0,0
22.05.2019 18:00:00 18,2 15,1 21,1 14 8 24 13 S 1015,6 17 0,0
22.05.2019 17:00:00 19,6 15,9 25,2 14 8 21 12 S 1015,6 18 0,0
22.05.2019 16:00:00 19,1 15,6 23,2 16 9 25 13 S 1015,6 18 0,0
22.05.2019 15:00:00 18,6 14,5 23,8 17 9 25 14 SSE 1015,9 18 0,0
22.05.2019 14:00:00 19,8 14,8 25,0 11 6 21 12 SSE 1015,9 19 0,0
22.05.2019 13:00:00 18,7 14,2 24,6 13 7 19 10 S 1016,2 19 0,0
22.05.2019 12:00:00 19,3 12,8 23,5 9 5 15 8 SSE 1015,9 42 0,0
22.05.2019 11:00:00 19,4 14,0 22,5 2 1 10 5 NNW 1015,4 36 0,0
22.05.2019 10:00:00 17,8 14,3 18,6 5 3 11 6 N 1015,2 20 0,0
22.05.2019 09:00:00 16,7 14,0 16,0 5 3 10 5 N 1015,2 20 0,0
22.05.2019 08:00:00 14,7 13,4 13,1 4 2 10 5 N 1015,0 18 0,0
22.05.2019 07:00:00 12,8 12,2 11,2 3 2 9 5 N 1014,6 16 0,0
22.05.2019 06:00:00 12,1 11,5 9,4 5 3 9 5 N 1014,0 13 0,0
22.05.2019 05:00:00 12,6 11,8 11,4 5 3 9 5 N 1013,9 16 0,0
22.05.2019 04:00:00 13,3 12,4 11,8 5 3 10 6 N 1013,8 19 0,0
22.05.2019 03:00:00 13,4 12,3 12,4 5 3 11 6 N 1013,8 29 0,0
22.05.2019 02:00:00 13,5 12,4 12,4 6 4 11 6 N 1013,9 29 0,0
22.05.2019 01:00:00 13,6 12,5 12,6 5 3 10 6 N 1014,0 20 0,0
22.05.2019 00:00:00 13,8 12,4 12,8 5 3 9 5 N 1013,9 32 0,0
21.05.2019 23:00:00 14,0 12,6 10,5 5 3 8 4 N 1014,0 31 0,0
21.05.2019 22:00:00 14,6 12,1 10,6 0 0 8 5 N 1013,3 54 0,0
21.05.2019 21:00:00 15,8 12,4 12,9 4 2 12 6 W 1012,6 60 0,0
21.05.2019 20:00:00 18,1 12,8 18,7 6 3 12 7 SE 1012,1 57 0,0
21.05.2019 19:00:00 19,0 12,0 20,3 6 4 16 9 NNE 1011,8 60 0,0
21.05.2019 18:00:00 20,3 12,3 23,3 7 4 19 10 ESE 1011,8 54 0,0
21.05.2019 17:00:00 19,4 11,9 22,7 6 3 15 8 SE 1011,9 60 0,0
21.05.2019 16:00:00 17,9 11,9 22,9 9 5 20 11 S 1011,9 58 0,0
21.05.2019 15:00:00 18,0 13,9 23,2 13 7 21 11 SSE 1011,7 58 0,0
21.05.2019 14:00:00 18,4 12,2 24,2 9 5 20 11 SE 1011,3 59 0,0
21.05.2019 13:00:00 18,1 13,4 23,4 10 6 18 10 SE 1011,3 57 0,0
21.05.2019 12:00:00 17,5 13,4 18,4 7 4 12 6 S 1011,1 49 0,0
21.05.2019 11:00:00 16,1 13,6 17,0 3 1 5 3 NNW 1011,0 30 0,0
21.05.2019 10:00:00 15,3 13,3 15,4 0 0 6 3 N 1010,6 20 0,0
21.05.2019 09:00:00 14,8 13,2 15,2 3 1 8 4 N 1010,1 35 0,0
21.05.2019 08:00:00 14,0 13,2 13,7 5 3 9 5 NNW 1009,6 38 0,0
21.05.2019 07:00:00 13,6 13,1 13,2 5 3 9 5 N 1009,3 19 0,0
21.05.2019 06:00:00 13,3 13,0 12,7 3 2 5 3 N 1009,0 19 0,0
21.05.2019 05:00:00 13,3 13,0 12,4 2 1 5 3 NNW 1008,8 14 0,0
21.05.2019 04:00:00 13,2 13,0 12,4 0 0 3 2 N 1008,9 12 0,0
21.05.2019 03:00:00 13,0 12,8 10,3 0 0 3 2 N 1009,1 10 0,0
21.05.2019 02:00:00 12,7 12,4 10,2 0 0 4 2 N 1009,0 6 0,0
21.05.2019 01:00:00 12,8 12,5 11,0 3 1 6 3 NNW 1009,3 10 0,0
21.05.2019 00:00:00 12,6 12,3 10,4 3 2 6 4 NNE 1009,3 12 0,0
20.05.2019 23:00:00 12,4 11,9 8,9 5 3 8 4 N 1008,9 8 0,0
20.05.2019 22:00:00 13,4 12,8 9,9 4 2 7 4 N 1008,5 15 0,0
20.05.2019 21:00:00 14,0 12,7 12,8 3 2 9 5 N 1008,0 30 0,0

tt = Température de l'air
td = dewpoint
tt 5cm = Température de l'air 5cm
ff = Vitesse du vent
fx = gusts
dd = Direction du vent
ppp = reduced air pressure
vv = visibility
rr = Quantités de précipitations

stations d'obs. à proximité